Theta_e
310 309 310 310 315 318 322 323 317 323 323 317 320 320 318 323 325 320 326 323 326 347 350 348 354 356 354 354 356 355 353 358 359 352 351 351 346 346 345 344 346 348 348 346 345 345 341 337 337 336 337 336 334 328 319 318 331 338 338 339 340 341 342 341 342 342 342 342 342 343 343 343 343 343 343 343 343 343 343 343 343 343 342 342 341 341 340 340 339 337 337 337 337 337 337 336 336
311 309 311 313 317 319 324 325 323 325 323 317 321 324 321 325 324 319 324 319 333 349 350 349 350 352 351 351 352 355 356 353 351 351 352 348 346 346 345 345 346 348 347 345 346 345 341 337 337 336 337 337 334 329 321 319 331 338 338 339 340 341 342 342 342 342 342 342 343 343 343 343 343 343 343 343 343 343 343 343 343 342 342 341 341 341 340 339 338 336 336 337 336 336 337 336 336
309 311 314 317 318 322 329 328 327 323 318 315 316 322 321 320 321 326 328 326 344 352 349 349 351 350 351 358 356 358 359 350 348 350 350 348 347 347 347 347 346 348 346 345 346 344 341 339 338 337 337 337 334 329 322 320 331 337 337 339 339 341 342 342 342 342 342 342 343 343 343 343 343 343 343 343 343 343 343 343 343 342 341 341 340 340 339 339 338 336 336 336 336 336 335 335 335
309 314 316 320 322 326 335 332 334 325 316 316 313 320 325 320 328 339 340 341 349 349 349 352 355 350 353 365 355 352 354 349 349 350 349 348 347 348 348 347 347 347 346 346 346 343 341 340 339 337 337 336 333 329 323 323 330 335 337 338 339 341 341 342 342 342 343 342 343 342 343 343 343 343 343 343 343 343 342 343 342 341 341 341 340 338 338 339 338 337 337 336 335 333 332 332 332
311 316 315 320 326 327 330 328 332 324 314 319 316 320 325 318 333 347 345 347 348 348 350 352 357 352 351 357 351 352 352 349 348 348 349 348 348 348 348 348 347 347 346 346 345 343 342 341 338 336 336 335 333 328 325 326 331 334 337 338 339 341 341 342 342 342 343 342 343 343 343 343 343 343 343 343 342 342 342 342 342 341 341 340 339 333 330 336 338 337 336 334 332 330 329 330 331
313 317 316 317 320 321 323 322 325 322 317 322 320 321 322 316 328 345 346 346 347 352 353 354 357 354 353 352 350 352 350 350 349 347 348 348 349 348 348 347 347 347 346 345 344 343 342 341 338 336 336 334 332 328 326 327 332 335 336 338 340 341 341 342 342 342 343 342 343 343 343 343 342 342 342 342 342 342 341 341 341 339 339 338 337 331 324 331 336 334 334 332 331 330 330 331 330
315 317 320 320 319 319 325 325 322 323 322 322 324 324 322 317 324 339 348 346 348 355 355 354 353 354 357 352 351 350 347 350 348 347 348 348 348 347 347 347 346 346 345 344 344 343 343 341 338 337 336 335 333 330 327 325 331 336 337 337 339 341 341 342 342 342 343 342 343 343 343 342 342 342 341 340 340 340 339 339 338 336 336 333 332 331 325 325 329 329 330 332 333 331 330 329 327
316 319 321 325 324 321 324 324 320 321 322 319 320 322 321 320 321 326 333 342 350 354 354 352 349 355 357 351 354 351 345 347 346 347 348 348 348 347 347 346 345 345 345 344 343 343 343 341 339 338 337 336 334 330 328 327 332 336 336 336 338 340 341 341 341 342 342 342 343 342 342 342 341 340 339 338 336 336 335 337 336 333 331 327 324 325 325 323 322 321 321 324 328 327 326 325 327
316 318 320 324 323 320 321 321 318 318 319 317 316 319 322 321 319 319 319 337 353 353 354 353 349 354 355 351 354 350 345 346 346 347 347 347 347 346 346 345 345 344 344 343 343 344 343 342 339 338 337 337 335 332 329 331 334 336 336 336 337 339 340 341 341 341 342 342 343 342 341 341 340 339 338 336 335 333 331 334 334 329 325 325 323 322 323 324 321 318 316 316 319 320 321 324 329
318 318 319 323 320 318 319 318 318 317 317 317 316 316 321 319 319 320 315 331 353 357 356 352 350 353 353 352 352 349 346 345 346 347 346 346 345 345 344 344 344 343 343 342 343 344 343 342 339 338 338 337 336 333 330 330 332 333 335 336 336 337 339 340 340 341 341 342 341 341 341 341 340 338 338 336 335 333 331 331 330 326 323 325 324 320 322 323 321 318 316 315 317 318 322 328 331
324 320 319 322 319 318 317 317 320 320 317 317 316 315 317 316 317 317 320 340 355 357 354 352 352 351 352 353 351 347 344 344 345 345 345 345 344 344 343 343 343 342 342 342 343 343 342 341 339 338 337 337 337 335 331 330 330 331 334 334 334 335 338 339 340 341 340 341 341 341 341 340 339 338 338 336 335 334 332 330 328 325 324 326 325 322 320 320 319 318 317 317 319 322 326 330 331
324 320 321 324 321 319 319 319 320 321 320 317 316 317 316 315 317 313 326 354 356 355 355 354 352 350 352 354 350 345 343 344 344 344 345 344 343 343 342 342 343 342 342 342 343 342 341 340 339 338 338 338 337 335 332 332 332 332 333 332 333 334 337 340 340 340 340 341 341 341 340 339 339 338 337 336 335 334 332 330 327 325 324 328 328 325 321 317 318 318 319 320 322 325 329 331 330
326 320 322 322 319 319 318 317 319 322 323 320 318 317 315 315 318 314 329 355 356 356 357 353 350 351 353 353 349 344 344 344 344 345 344 343 343 342 342 342 342 342 343 342 342 341 341 340 340 339 339 339 337 335 333 333 334 333 332 332 333 333 336 339 339 340 340 341 340 340 340 339 338 336 336 336 335 334 332 330 327 324 325 328 328 327 322 316 317 318 320 322 324 328 330 330 331
325 320 322 318 316 317 315 316 317 319 320 319 318 314 318 318 315 323 343 356 354 354 354 350 348 352 354 353 351 346 345 345 344 344 343 343 342 342 342 342 342 342 342 342 341 341 341 340 340 339 339 338 336 334 334 334 334 333 333 333 334 333 335 337 338 340 339 339 338 337 337 337 336 335 336 335 334 334 333 330 328 326 326 328 328 328 323 317 316 318 321 323 325 328 330 330 331
320 320 323 320 315 315 315 317 316 316 316 318 317 316 334 335 324 336 350 355 353 349 350 349 347 352 354 353 353 347 345 345 344 344 342 342 342 342 342 341 341 341 341 341 341 341 340 340 339 338 337 336 334 334 334 334 334 334 334 335 335 334 334 335 337 338 338 337 336 336 336 336 336 335 336 335 335 335 333 330 328 328 328 329 329 328 323 317 315 318 321 323 325 328 329 330 332
317 320 321 317 314 314 315 315 314 316 316 318 316 320 348 351 340 347 349 349 352 349 351 353 349 350 351 351 351 346 345 345 344 344 343 342 342 341 341 340 341 340 341 341 341 341 339 339 337 335 334 333 331 332 333 333 333 333 334 335 336 335 334 334 336 336 337 336 336 337 336 336 335 334 334 334 335 335 333 331 328 328 329 329 330 329 326 319 314 317 320 322 325 328 329 330 332
316 320 320 316 315 315 315 316 315 316 318 320 315 320 349 355 349 351 348 349 353 351 351 352 350 349 349 349 347 344 345 344 343 344 343 343 341 341 341 340 341 340 339 340 340 339 337 337 335 332 332 332 331 332 332 333 333 333 334 335 335 334 334 334 335 335 336 336 336 336 335 334 331 330 329 329 333 333 333 333 330 329 328 328 329 329 329 324 315 314 318 321 324 328 329 330 332
318 322 319 316 317 316 318 319 316 316 316 317 315 315 333 350 352 350 350 352 352 352 351 350 349 348 347 346 345 344 344 344 343 343 342 342 341 341 341 340 339 339 338 339 338 338 336 335 334 332 333 333 332 333 333 333 333 333 333 333 333 333 333 333 334 335 336 335 335 334 333 331 329 328 327 325 327 329 332 335 332 330 328 327 329 329 330 328 321 314 314 318 322 326 328 330 332
321 320 316 319 320 315 317 319 317 316 314 316 317 312 323 347 353 350 354 354 352 354 354 352 351 349 346 345 344 344 343 343 342 342 342 341 340 339 339 339 338 337 338 338 337 336 335 334 333 333 334 334 333 333 332 333 333 333 332 332 334 336 335 333 333 335 334 334 333 333 332 331 331 332 334 331 327 326 329 334 334 333 331 328 327 328 329 329 327 321 315 315 320 325 327 330 331
320 318 317 321 318 315 316 316 316 315 314 316 313 314 335 355 352 351 354 353 354 355 355 354 354 351 348 346 344 344 343 342 342 341 341 339 339 338 338 338 337 337 337 337 336 335 335 334 334 334 335 335 333 332 333 333 332 332 332 333 336 340 339 333 333 335 334 333 333 333 334 335 336 337 338 337 335 331 328 328 330 331 331 329 328 327 327 328 329 328 322 316 317 322 326 330 331
316 317 321 321 316 315 316 315 316 316 314 314 316 329 346 352 350 352 352 355 356 352 352 354 353 351 348 346 343 343 343 342 342 341 340 339 338 337 337 337 336 336 336 336 335 335 334 334 335 335 336 335 333 333 334 334 333 332 333 336 337 339 340 336 335 336 334 333 333 333 334 336 338 338 338 337 338 337 333 329 327 327 327 328 328 328 327 327 328 329 328 321 317 320 325 330 331
314 317 320 320 314 313 315 315 317 316 314 313 322 341 349 350 354 353 352 356 356 350 349 350 350 348 346 346 343 343 343 342 342 340 339 338 337 337 336 336 336 336 335 335 335 335 334 334 335 335 336 336 334 333 334 335 334 333 333 335 337 337 338 337 336 335 334 333 333 332 333 335 336 337 337 337 337 337 337 336 334 332 329 327 326 326 327 328 327 328 329 327 324 323 326 330 330
316 318 316 317 314 313 314 314 315 314 314 314 317 334 349 354 354 352 355 357 353 350 348 347 346 345 345 344 343 343 344 343 342 341 339 338 337 337 337 336 336 336 335 335 334 335 335 335 336 336 337 336 335 334 334 335 334 334 334 334 335 335 336 336 335 335 334 333 331 332 333 335 336 336 336 336 337 337 337 337 337 336 334 331 327 325 324 326 328 327 327 329 328 327 328 330 329
314 317 316 315 314 314 314 313 313 313 313 314 316 335 355 357 353 351 354 353 350 349 346 345 346 345 345 342 342 343 343 342 341 340 339 337 337 337 337 337 336 336 335 335 334 335 336 337 337 338 338 337 335 334 334 334 334 334 334 334 333 333 333 333 333 332 332 332 331 332 334 335 336 336 336 336 336 337 337 337 337 337 337 336 334 331 326 324 326 328 328 327 329 330 329 329 329
313 315 316 314 314 315 315 313 313 313 314 320 331 348 355 352 352 350 349 350 349 347 346 345 345 344 344 342 341 341 341 341 340 339 338 337 337 336 337 337 336 337 335 335 335 336 338 338 338 338 338 338 336 333 332 332 333 334 333 333 333 333 333 332 332 332 332 333 334 335 335 336 337 336 336 336 336 337 337 337 337 338 337 337 336 336 332 328 326 327 328 327 328 330 331 331 330
315 315 315 313 315 313 314 314 314 315 318 337 351 353 350 348 350 348 345 349 348 346 347 345 345 345 343 342 341 340 341 340 339 339 338 337 337 337 336 336 336 337 336 336 336 337 338 338 339 339 339 339 335 331 332 333 333 333 333 334 335 335 335 335 336 335 335 335 336 336 336 337 337 337 336 336 336 336 337 338 337 337 337 337 337 337 336 334 331 328 327 326 327 329 331 332 331
314 314 313 313 314 312 314 312 315 316 318 344 357 351 350 349 352 352 345 347 348 347 348 345 346 346 343 342 341 341 341 340 340 339 338 337 337 337 336 336 336 337 337 337 336 336 338 339 339 340 340 339 336 333 333 334 335 335 336 336 337 337 337 337 338 338 338 337 337 337 337 337 337 337 337 336 336 336 337 337 337 337 337 337 337 336 336 336 335 333 331 330 329 329 329 330 331
311 312 312 314 313 313 315 311 315 314 314 338 351 351 351 349 353 353 345 346 348 347 349 347 346 346 344 343 342 341 341 340 340 340 339 338 338 338 337 336 337 338 338 338 338 338 338 339 340 340 340 340 339 337 336 336 336 336 336 337 337 338 338 338 339 338 338 338 338 338 337 337 337 337 337 336 336 336 336 336 336 336 336 336 336 336 336 336 336 336 335 334 333 332 331 330 331
311 312 311 316 317 316 315 314 316 313 322 340 349 350 347 347 350 346 344 347 347 348 350 348 347 346 344 344 344 343 342 341 341 341 340 339 339 339 338 338 338 339 339 339 338 339 339 340 340 340 340 339 340 339 339 338 338 338 337 337 338 339 339 338 338 338 338 338 337 337 337 337 337 337 337 336 336 335 335 335 335 335 335 335 335 335 335 336 336 336 336 335 335 334 333 333 333
312 311 312 316 316 317 314 313 314 315 329 340 347 351 342 343 348 343 344 346 346 349 350 348 347 346 345 344 344 344 342 342 341 341 341 340 340 340 340 339 339 341 340 339 339 340 341 341 341 341 340 340 339 339 339 339 339 338 338 338 339 340 339 338 337 337 337 337 337 336 336 336 336 336 336 336 336 335 335 335 335 335 335 335 335 335 335 335 335 335 335 335 335 334 334 334 334
313 310 316 317 312 317 317 315 316 314 320 324 334 346 341 345 348 345 347 346 346 351 349 349 347 345 345 344 344 344 342 341 340 341 341 341 341 341 341 341 341 342 340 340 341 341 341 341 340 340 340 340 339 339 339 339 340 339 339 339 339 339 338 337 337 337 337 337 337 337 336 336 336 336 336 336 336 335 335 335 335 335 335 335 335 335 334 334 334 334 334 334 334 334 334 333 333
318 310 318 318 309 317 322 316 318 314 314 316 321 334 341 348 346 344 348 347 347 351 350 348 347 344 344 344 344 342 340 339 339 340 340 341 341 341 341 341 341 340 340 341 340 339 339 339 338 338 339 339 339 339 339 339 340 339 340 339 339 338 338 337 337 337 337 337 337 337 336 336 336 336 336 336 336 335 335 335 335 336 336 336 336 335 335 334 334 333 333 333 333 333 333 333 332
321 314 319 318 310 314 317 312 316 318 315 318 325 335 345 349 342 341 342 341 341 344 347 346 345 345 344 344 343 341 340 339 338 339 339 340 341 341 341 341 340 340 341 340 339 339 339 339 339 339 339 339 339 339 339 339 339 339 339 339 339 338 337 337 336 336 337 337 337 336 335 335 335 335 336 336 335 335 335 335 335 335 335 336 336 335 335 335 335 334 334 333 333 333 333 333 333
317 315 318 317 313 312 314 313 316 325 325 327 338 344 347 346 341 340 336 334 335 336 341 344 345 346 344 344 343 342 341 339 339 338 339 339 339 340 340 341 341 341 340 339 339 340 340 340 340 339 339 339 339 339 339 338 339 339 338 338 338 337 336 336 336 336 336 335 335 335 335 335 335 335 335 334 334 334 335 335 334 335 335 335 336 336 335 336 336 335 335 334 333 333 332 332 332
317 317 317 315 313 311 314 313 313 332 342 339 344 346 345 343 339 338 333 332 334 334 337 343 345 345 344 344 343 341 340 339 338 336 337 338 338 339 338 339 340 340 340 339 340 340 340 339 338 338 338 338 338 338 338 338 338 338 338 338 338 337 337 336 336 336 335 335 334 334 334 334 334 334 334 333 333 334 335 335 335 335 335 335 336 336 336 336 335 335 335 334 334 333 333 332 332
320 322 323 318 314 313 316 313 316 336 348 343 345 346 346 343 337 337 335 333 335 335 335 338 341 342 343 344 342 340 339 338 335 333 335 336 336 337 337 338 338 338 339 339 339 339 338 337 337 337 337 337 338 338 337 337 338 338 338 338 338 337 336 335 335 334 334 334 334 334 334 334 333 333 334 334 334 335 335 335 335 335 334 334 336 336 335 335 335 335 334 334 334 334 334 334 333
316 318 320 316 313 314 312 313 322 336 347 344 342 345 345 341 337 337 337 335 336 337 335 335 337 340 341 342 341 340 337 335 332 332 333 333 333 334 334 336 336 336 337 337 337 336 336 336 336 336 336 337 337 337 337 337 337 337 337 338 337 336 335 334 334 334 333 333 333 333 333 334 334 333 334 334 334 334 334 334 334 334 334 334 334 334 334 334 334 334 334 333 333 334 334 334 334
315 316 317 314 313 312 310 320 334 340 346 346 342 344 343 338 337 336 335 337 336 336 335 334 334 336 337 338 339 337 335 333 331 331 330 330 331 331 332 333 333 332 332 334 334 333 334 334 334 334 335 336 336 336 336 336 336 336 337 337 336 335 334 334 334 333 333 333 333 333 333 334 334 334 334 334 334 334 333 333 334 334 334 333 333 333 334 334 334 333 333 332 332 333 333 333 333
316 315 315 315 314 312 316 332 343 342 345 346 343 345 344 339 337 335 335 336 334 334 335 334 333 333 334 335 336 334 334 333 332 330 329 329 329 329 330 329 329 329 329 330 331 331 333 332 332 332 332 333 333 334 335 335 335 336 336 336 334 333 332 333 333 333 333 333 333 332 333 333 333 333 334 333 333 333 333 334 334 334 334 333 332 332 333 333 333 332 331 331 331 331 332 332 332
317 316 316 315 312 313 324 339 342 341 344 344 342 343 343 340 339 337 335 334 333 334 334 334 334 333 333 332 332 333 333 333 331 330 328 327 327 327 327 327 327 327 327 328 329 330 330 329 330 330 330 331 331 332 333 333 334 334 335 334 332 332 331 331 331 331 331 332 332 332 332 332 332 332 332 333 333 333 333 333 333 333 333 332 331 332 331 331 332 331 331 331 331 331 331 331 332
313 317 318 315 316 325 335 341 342 341 341 341 341 344 344 341 341 340 336 333 334 334 333 333 333 332 332 331 331 331 331 331 330 330 328 326 326 325 325 325 326 326 325 326 327 327 328 328 329 329 329 329 329 329 330 331 332 332 332 331 331 331 330 330 329 329 329 330 330 330 330 330 331 331 331 331 332 332 332 332 331 331 332 332 332 332 332 332 332 331 331 331 331 331 331 331 332
312 315 315 317 333 343 342 340 341 342 343 342 340 346 347 341 341 341 338 337 336 335 334 334 332 331 331 331 330 329 328 328 328 328 327 325 324 324 323 323 324 323 323 324 325 325 326 326 326 326 326 326 326 327 327 329 330 330 330 329 329 329 327 326 326 326 326 327 327 327 328 328 329 329 329 330 330 330 330 330 330 330 331 332 332 332 332 332 331 331 332 332 331 331 331 331 331
313 313 313 324 341 344 340 340 343 343 343 340 336 343 348 340 339 339 337 338 336 334 334 333 332 331 330 330 329 327 327 327 326 325 324 324 323 322 322 321 321 321 321 322 322 322 323 323 323 323 323 323 323 324 325 326 327 328 328 327 327 326 324 323 323 323 324 324 325 325 325 326 326 327 327 327 328 329 329 329 329 329 330 330 331 331 331 331 331 331 331 331 331 331 331 331 331
315 311 312 332 345 342 338 339 346 344 339 338 335 340 348 344 340 339 336 337 335 333 332 332 331 329 329 329 328 327 326 325 325 324 323 323 322 321 320 320 320 320 321 320 320 320 320 320 320 321 321 321 321 322 323 324 325 326 326 325 324 323 322 322 322 322 322 323 323 323 324 324 324 324 325 325 326 327 327 328 328 328 328 328 329 329 329 329 330 330 330 330 330 330 330 330 331
316 311 310 328 341 341 338 336 345 344 334 339 340 338 345 345 340 337 336 338 337 334 333 332 331 328 327 328 327 326 325 324 323 323 322 322 321 320 320 319 319 320 320 320 319 318 318 318 318 318 318 319 319 320 321 322 323 324 324 324 322 321 321 321 321 321 321 321 322 322 322 322 322 322 323 323 323 324 325 325 325 325 325 325 326 326 326 326 326 327 327 327 328 328 328 329 330
312 310 309 316 323 328 331 334 342 338 329 335 339 339 344 344 340 338 337 339 337 335 334 332 329 327 326 327 326 325 324 323 322 322 322 321 320 319 319 319 319 319 319 319 318 317 317 317 316 316 315 316 317 318 319 320 321 322 322 321 321 320 320 320 320 320 320 320 320 320 320 320 320 321 321 321 321 321 322 322 322 322 322 322 323 323 323 323 323 323 324 325 326 326 326 326 327
308 310 310 311 317 322 329 337 338 334 335 337 336 338 338 336 340 339 337 339 337 335 334 332 329 327 327 326 325 324 323 322 321 321 320 320 319 318 319 318 318 318 318 318 318 317 316 316 315 314 313 314 315 316 318 319 319 319 318 318 318 318 318 318 319 318 318 318 318 318 318 318 319 319 318 319 319 319 318 319 319 319 320 320 320 320 320 320 320 320 321 322 323 324 324 324 324
309 313 311 312 320 321 323 331 328 328 335 334 334 337 331 330 339 338 337 339 337 335 334 332 330 328 327 326 325 323 322 320 320 320 320 319 318 318 318 318 317 318 318 317 318 317 316 315 314 314 313 313 314 315 316 317 317 317 316 316 316 316 316 316 316 315 316 316 316 316 317 317 317 316 316 316 316 316 316 317 317 318 318 318 318 318 318 318 318 318 319 320 322 322 323 323 323
310 315 313 312 318 314 314 323 324 326 328 324 328 334 332 334 336 332 336 340 337 334 332 330 329 327 326 325 324 322 321 320 319 319 319 318 318 318 317 317 317 317 317 317 318 317 315 314 314 313 312 312 313 314 314 315 314 314 314 314 314 314 314 314 314 314 314 314 314 314 315 315 314 314 314 313 312 313 314 313 314 314 315 315 316 316 317 317 317 317 318 319 319 320 321 322 323
310 314 314 313 317 313 313 321 323 325 326 323 325 332 336 340 334 326 331 336 335 333 329 328 327 325 325 324 322 322 320 320 319 318 319 318 318 317 317 317 317 317 316 316 317 316 314 313 313 313 313 312 312 312 313 313 312 312 312 312 312 312 312 312 312 312 312 313 313 313 313 313 312 313 313 312 312 313 312 311 311 312 312 313 313 314 315 316 316 317 317 317 317 318 319 320 321
309 312 314 315 320 319 316 320 321 323 327 326 326 332 338 341 332 325 327 330 331 330 327 326 326 323 323 322 322 321 320 319 318 317 318 318 317 317 316 316 316 316 315 316 317 316 314 314 313 313 313 313 312 311 311 311 311 311 311 310 309 309 309 309 309 310 310 311 311 312 312 311 311 311 311 311 311 312 311 310 311 311 311 311 312 312 313 314 314 315 316 316 316 316 317 318 319
308 311 313 312 318 326 322 320 325 330 333 331 330 331 332 332 328 324 327 329 328 328 326 325 325 323 322 322 321 320 319 318 318 317 317 317 317 316 315 315 314 314 314 315 316 315 314 314 313 314 314 313 311 310 310 310 310 310 309 308 307 307 306 307 307 307 307 308 308 309 309 309 309 310 310 310 309 309 308 309 309 309 310 310 310 310 311 311 312 312 313 314 314 314 315 316 317
311 310 312 311 315 328 324 315 321 328 328 328 329 331 329 329 330 327 327 330 328 326 326 325 324 323 322 321 320 319 318 318 317 317 317 316 315 314 314 314 314 314 315 315 315 315 314 314 314 314 313 311 310 309 309 309 309 309 308 307 306 305 305 305 305 305 305 305 305 305 306 306 307 307 307 307 306 305 304 305 306 307 307 307 307 307 307 308 309 309 310 310 310 311 312 313 314
312 309 312 311 311 322 326 321 325 327 327 328 327 330 332 333 335 331 328 331 330 327 326 325 324 323 321 320 319 319 318 317 317 316 316 315 314 313 313 313 314 314 315 315 315 315 314 314 314 313 312 310 309 309 308 308 308 308 307 306 306 305 304 304 304 304 304 304 303 303 304 304 304 304 304 304 303 302 302 303 303 304 304 304 304 305 305 306 307 307 308 307 307 308 309 311 312
311 311 311 314 314 316 321 323 323 323 330 336 331 328 330 332 333 331 331 332 330 328 327 325 324 322 320 319 319 318 318 317 316 315 314 313 313 312 312 313 313 313 314 314 314 314 314 313 313 312 310 310 308 308 307 307 307 307 306 306 305 305 305 304 304 304 303 303 302 302 302 302 302 302 302 302 301 300 300 301 301 301 302 302 302 302 303 304 305 304 304 304 304 305 306 307 309
309 311 309 313 316 314 315 320 323 323 328 334 333 329 330 331 330 329 331 330 329 328 326 324 323 321 319 319 318 317 317 316 315 314 313 312 311 311 312 312 312 312 312 312 312 312 312 311 311 310 310 309 308 307 306 306 306 306 306 306 305 305 305 304 304 303 302 301 300 301 301 301 301 301 301 300 299 299 299 299 299 299 300 300 300 300 300 302 303 301 301 302 303 305 305 306 308
310 311 310 312 314 313 314 318 323 328 333 334 334 335 336 333 328 327 329 328 326 325 324 322 321 319 318 318 317 316 315 314 314 313 312 311 310 310 311 311 311 311 311 311 311 311 310 310 310 309 309 308 307 306 306 306 306 305 305 305 305 305 304 304 303 301 300 299 299 299 299 299 300 299 299 299 298 298 298 297 297 297 298 298 298 298 298 299 299 300 301 302 304 305 305 305 307
311 312 312 313 315 315 315 315 320 330 338 336 335 340 341 332 326 326 327 326 324 322 321 320 319 318 318 317 316 315 314 313 312 312 310 309 309 310 311 311 310 310 309 309 309 309 309 308 308 308 308 307 306 306 306 305 305 305 305 304 304 304 304 304 303 300 299 299 299 298 298 298 298 298 298 298 297 297 297 297 296 296 296 297 297 297 297 297 297 298 300 301 302 303 303 303 304
Wind_Speed
9 8 8 6 9 8 5 4 1 3 2 1 3 2 4 4 1 1 4 5 2 2 3 3 5 4 6 8 9 8 5 2 4 4 3 2 10 22 16 14 23 22 21 20 19 18 18 19 17 16 15 13 13 13 14 15 16 16 17 17 17 17 16 16 17 17 17 17 17 17 17 17 17 16 16 16 16 15 16 16 15 15 15 15 15 15 15 16 16 16 16 16 16 15 15 14 14
8 7 7 5 7 5 1 3 2 3 2 2 4 4 4 3 3 3 5 5 1 3 3 7 11 10 10 11 9 6 5 4 2 3 2 7 16 17 11 17 24 21 21 21 20 19 19 20 18 16 15 13 13 13 13 15 16 16 16 16 16 17 16 16 16 16 17 17 17 17 17 17 16 16 16 16 16 16 15 15 15 15 15 15 15 15 15 15 16 16 15 15 15 15 14 13 13
8 6 6 3 4 4 1 3 2 1 1 4 5 3 3 4 4 5 6 4 5 5 5 6 8 7 6 7 5 4 2 2 4 3 5 12 13 11 14 21 23 20 21 20 19 19 20 19 18 17 15 14 13 13 13 14 15 16 16 16 16 16 16 16 15 16 16 16 16 16 16 16 16 16 16 16 16 15 15 15 15 15 15 15 15 14 14 14 14 15 15 15 15 14 13 13 13
8 6 5 2 2 4 4 3 2 4 3 5 4 5 3 2 5 5 3 3 5 1 1 2 4 2 3 8 4 4 4 2 4 4 5 9 10 14 19 21 21 19 20 20 18 18 19 18 17 17 16 14 13 13 13 14 14 15 16 16 16 16 16 15 15 16 15 16 16 16 16 16 16 16 16 16 15 15 14 14 14 14 13 13 13 13 12 12 13 13 13 14 13 13 13 13 12
6 5 5 3 3 1 3 2 2 4 5 3 1 5 4 1 5 5 5 4 1 2 2 2 3 1 4 6 1 2 5 4 4 4 6 7 12 19 20 21 20 19 20 19 18 19 18 17 17 17 16 15 14 14 13 13 14 15 16 16 16 15 15 15 15 15 15 15 15 15 15 16 16 15 15 14 14 13 13 12 12 12 11 10 10 11 11 11 11 11 11 12 12 11 11 11 11
4 5 7 6 3 1 3 2 2 4 5 4 3 5 5 3 4 1 1 3 4 6 4 3 3 4 4 3 2 3 3 4 3 4 7 11 16 20 20 20 19 18 19 18 18 18 17 16 17 17 16 15 15 14 13 12 13 15 15 15 15 15 15 15 15 15 14 15 14 14 14 15 15 14 14 13 13 12 11 11 10 9 8 7 7 9 11 12 11 9 9 10 9 9 9 9 9
3 3 4 5 2 1 4 3 5 4 4 4 4 4 5 6 2 1 1 2 5 8 7 5 3 5 4 1 2 2 2 3 4 6 10 16 20 21 21 19 18 17 17 18 18 18 16 16 17 16 16 15 14 13 12 12 13 14 15 15 15 15 15 14 14 14 14 14 13 13 14 14 14 13 13 12 11 10 10 9 8 7 7 6 6 8 11 12 11 9 8 8 7 6 7 7 9
4 2 1 4 2 2 3 3 4 4 4 3 4 4 5 8 4 3 3 2 3 4 5 4 4 5 3 2 2 2 7 6 8 11 15 19 21 21 20 18 18 17 17 17 18 17 15 15 16 16 15 14 13 13 11 12 13 14 14 15 15 15 15 14 14 13 13 13 12 12 13 13 12 12 12 11 10 9 9 8 7 7 7 6 7 7 9 10 9 9 8 8 8 7 6 7 9
5 3 1 3 2 1 0 3 4 3 4 5 5 5 5 8 5 4 5 1 4 5 2 2 3 5 4 4 3 2 7 10 14 17 19 20 21 21 18 17 18 18 18 18 18 16 15 15 16 15 14 13 13 13 11 12 13 13 14 14 14 15 15 14 13 13 12 12 11 12 11 11 11 11 11 10 9 8 8 8 7 7 7 7 7 6 6 7 7 8 8 9 9 8 8 9 9
4 2 2 2 3 1 3 3 3 3 4 5 6 8 6 6 4 4 6 2 5 5 3 4 6 7 8 7 3 1 6 14 20 20 19 22 21 20 18 17 18 19 19 19 18 16 15 15 15 15 13 12 12 12 12 12 12 13 14 13 14 15 14 14 13 12 11 10 10 10 10 10 10 10 9 9 9 8 8 7 7 7 7 8 8 7 6 6 6 7 9 11 11 10 10 10 8
3 3 3 3 2 2 4 3 4 4 5 4 6 9 8 7 4 4 4 3 4 7 8 7 9 10 9 6 2 4 11 16 20 20 18 21 20 19 18 17 18 19 21 20 18 16 15 15 14 13 12 11 11 11 12 12 12 14 14 13 13 14 14 13 12 12 10 9 9 9 8 9 8 8 8 8 8 8 7 7 6 6 7 8 9 8 7 6 5 7 10 12 11 11 11 9 7
2 2 4 4 2 4 4 2 4 5 6 4 5 7 5 8 5 6 6 7 6 11 8 5 8 9 8 5 2 7 14 15 19 20 19 21 20 19 19 18 18 19 20 20 18 17 16 14 13 13 12 11 11 11 12 12 13 13 13 12 13 13 13 12 12 11 10 9 8 8 7 7 7 7 7 8 9 9 7 6 6 6 6 8 9 9 8 6 5 7 10 12 11 11 10 8 6
3 2 5 3 3 3 3 1 4 4 5 4 5 5 4 7 7 10 8 8 10 10 5 6 11 7 6 5 3 6 10 13 18 19 19 21 20 19 19 19 19 19 19 19 19 17 16 14 13 13 12 11 11 11 11 12 13 12 12 12 12 13 12 11 11 11 10 9 8 7 6 6 6 6 7 8 9 9 8 7 7 7 7 8 9 9 9 7 6 7 10 11 11 11 9 7 6
3 3 5 2 1 2 3 1 3 1 4 5 3 4 2 4 8 9 9 11 7 6 5 9 11 5 6 6 4 4 9 17 19 19 20 21 20 19 20 20 19 19 18 18 18 16 15 14 13 12 11 11 11 11 11 11 11 11 11 11 11 11 10 10 11 10 9 8 7 6 5 5 5 6 6 6 8 8 7 7 7 8 8 9 9 9 9 7 6 6 9 10 10 9 7 6 5
3 2 4 2 0 1 2 2 2 2 4 5 3 5 3 3 5 8 10 11 4 2 8 9 5 3 7 8 5 7 14 21 20 21 22 20 20 20 20 20 19 19 18 18 17 15 15 13 12 12 12 11 11 12 11 11 10 11 11 10 10 10 9 9 10 9 8 7 6 5 4 4 5 5 5 5 6 7 7 6 6 8 8 9 9 9 10 8 6 6 7 8 9 8 7 6 6
3 3 4 2 1 1 3 3 2 2 4 5 4 4 5 5 2 5 4 8 8 4 5 4 2 1 9 7 7 16 23 24 22 22 22 20 21 21 20 19 18 18 18 17 16 14 14 12 12 11 11 11 11 12 12 10 9 10 10 9 9 8 8 8 8 8 7 6 5 4 4 3 4 3 3 3 4 4 5 5 5 6 7 8 9 9 10 9 6 4 5 7 8 7 6 6 7
3 4 4 1 3 3 3 4 4 3 5 5 6 5 6 6 4 4 5 8 11 7 6 4 3 2 7 8 17 25 26 25 24 24 22 22 22 21 19 18 18 17 16 15 14 13 12 11 10 10 10 10 10 11 11 10 9 8 9 8 7 6 6 7 7 7 6 5 4 3 3 2 2 2 1 2 1 2 4 4 3 4 5 6 7 8 9 9 8 4 3 5 6 6 5 5 6
3 3 3 2 4 4 5 6 5 3 3 6 7 5 2 2 2 3 7 9 9 10 7 6 8 9 12 18 26 27 26 26 25 25 24 22 20 18 18 17 17 16 15 12 12 12 11 11 10 9 10 9 9 9 10 10 9 8 8 8 7 6 6 6 7 6 5 4 3 3 2 2 3 4 5 4 2 2 3 3 2 2 3 4 5 7 7 8 8 6 2 3 5 5 4 4 5
3 3 2 4 5 5 5 6 4 3 5 7 8 6 4 4 3 1 5 7 8 12 8 9 12 11 14 19 24 25 25 25 22 22 21 19 17 16 17 18 17 16 14 12 11 11 11 11 10 9 9 8 9 9 9 10 8 8 8 9 9 8 7 6 7 6 4 4 3 3 3 4 5 6 7 6 5 4 3 2 2 2 3 3 4 5 6 6 7 7 4 2 4 5 4 4 4
3 3 2 5 5 5 5 6 6 6 6 6 9 7 3 7 3 1 6 10 7 10 9 11 13 11 13 14 19 23 23 20 18 18 16 16 15 15 18 18 18 16 14 13 12 12 11 11 10 9 8 8 8 9 10 9 8 8 9 10 9 7 6 6 6 5 4 4 3 3 4 4 4 5 5 5 6 5 4 3 2 3 3 4 4 4 4 5 5 6 5 1 4 5 5 4 3
2 4 5 5 4 4 6 7 8 7 5 3 7 3 6 5 3 3 10 10 3 7 8 10 16 16 15 14 15 19 19 16 15 15 14 14 13 13 16 16 17 16 14 13 13 13 11 10 9 9 8 7 8 9 9 8 8 9 9 8 7 5 5 5 5 4 3 3 2 2 2 3 3 4 4 5 6 6 5 4 4 4 4 5 5 4 4 3 4 4 4 3 2 5 6 5 3
2 3 6 6 3 4 6 6 5 3 3 3 5 1 6 3 4 4 5 4 3 5 4 8 17 18 17 17 16 15 15 15 12 13 14 13 14 14 14 15 15 15 14 14 14 13 11 9 9 8 8 7 7 8 7 7 7 7 8 7 6 4 4 4 3 2 1 1 1 1 1 2 3 4 6 6 6 6 6 6 6 6 5 5 6 6 6 4 2 2 2 2 1 4 7 6 4
2 3 3 5 5 6 5 3 2 1 2 6 3 2 3 7 5 2 3 2 1 6 8 10 14 16 18 17 15 13 13 14 12 13 14 14 15 14 15 15 15 14 13 12 12 11 10 9 8 7 7 6 6 6 6 6 6 6 6 5 5 4 3 2 1 1 1 1 1 2 3 4 5 6 7 7 6 6 6 6 7 7 7 7 6 5 7 7 5 3 2 2 1 2 6 6 5
2 3 4 4 6 7 6 5 4 2 4 8 3 3 4 10 5 2 5 5 6 11 13 15 13 15 16 13 12 11 11 12 11 12 13 14 14 13 14 15 14 14 13 11 11 10 9 8 7 6 6 5 5 5 6 6 5 5 5 4 4 3 2 1 2 3 3 3 3 4 5 6 7 8 8 7 7 6 6 6 6 7 8 8 7 6 6 7 8 6 5 4 3 2 4 6 7
3 5 4 3 4 6 7 6 5 3 6 4 4 4 6 11 8 4 4 5 10 13 15 15 13 13 12 11 11 10 9 10 11 12 12 11 12 12 12 12 13 13 12 11 10 9 8 8 7 5 5 4 3 4 5 5 4 4 4 3 2 1 0 1 2 3 4 4 5 6 7 8 9 8 7 7 7 7 7 7 7 8 8 8 9 8 7 6 7 8 8 7 6 5 5 6 8
4 5 4 3 5 6 6 5 3 4 4 3 9 9 8 9 9 4 4 4 11 12 14 13 12 12 10 9 9 9 9 10 12 12 12 12 13 12 11 11 11 11 10 10 9 8 7 7 6 5 4 3 3 3 4 4 3 3 3 2 1 1 1 2 3 4 5 6 6 7 8 9 9 8 6 7 7 8 8 8 8 9 9 9 9 9 9 8 7 7 8 9 8 7 7 7 8
5 5 4 5 7 7 4 4 3 2 2 4 11 9 6 3 5 3 3 4 13 13 12 10 10 10 9 9 9 10 10 10 12 13 13 14 13 13 13 12 11 10 10 10 8 8 7 7 6 6 4 2 2 3 3 2 1 2 2 1 2 2 3 4 5 6 6 6 7 8 9 9 9 8 7 7 7 7 7 8 9 9 9 9 9 9 9 10 10 9 9 9 9 9 9 10 11
3 3 3 6 5 5 4 3 4 2 1 3 12 9 4 5 3 7 4 6 11 14 13 10 9 8 9 10 9 9 9 11 13 13 13 13 13 13 14 13 12 10 10 9 7 8 7 6 6 5 4 3 1 1 1 0 1 2 2 2 3 4 5 6 7 7 6 7 7 7 7 8 8 8 8 7 6 5 6 7 8 8 9 9 9 9 9 10 11 11 11 11 10 11 11 12 13
1 1 3 7 7 5 5 2 4 3 3 7 12 8 6 6 4 8 10 9 10 13 15 12 9 7 9 10 9 8 9 13 13 11 12 13 14 14 14 14 13 11 10 8 7 7 6 5 5 5 4 3 2 1 1 2 3 3 3 3 4 5 6 7 7 7 7 7 7 6 6 7 8 8 7 6 5 5 6 7 8 8 8 9 8 9 9 8 9 10 11 11 11 11 12 12 13
2 2 2 4 7 5 6 1 2 3 6 9 8 5 3 3 6 8 10 12 13 13 14 12 8 7 8 8 8 8 9 12 11 11 13 14 15 15 15 15 13 11 9 7 6 6 4 3 3 2 2 2 1 1 2 3 3 3 3 3 4 5 6 7 6 5 6 6 6 6 6 7 7 7 6 6 5 6 6 7 7 7 8 8 8 8 8 8 8 8 9 11 11 12 12 12 14
1 1 3 2 2 4 8 1 3 5 2 4 7 4 3 5 8 8 8 11 14 13 12 11 8 7 8 8 9 8 9 11 11 11 13 14 15 16 16 14 13 12 9 7 6 6 4 3 2 1 0 1 1 1 2 2 3 3 3 4 4 5 6 6 5 5 6 6 7 7 7 7 7 6 6 6 5 5 6 6 6 6 7 8 8 9 9 9 9 9 9 10 12 12 13 13 14
2 1 2 3 2 5 8 3 4 6 0 3 6 4 2 6 7 5 7 10 10 11 13 11 9 9 9 8 8 6 8 12 13 12 13 14 15 15 16 14 13 11 10 8 6 5 5 3 3 2 1 1 1 1 2 2 3 3 4 5 5 6 7 7 7 7 8 8 8 9 9 8 7 6 6 6 6 6 7 6 5 5 6 8 8 8 8 9 10 10 9 10 11 12 13 13 13
4 2 2 2 2 3 4 2 0 4 3 4 3 5 3 5 8 2 2 6 6 5 8 10 9 9 10 8 7 6 7 10 11 12 13 15 15 15 15 15 14 12 10 9 6 6 6 4 3 2 1 0 1 2 2 3 4 4 5 6 7 8 9 8 8 8 9 9 9 9 9 8 7 6 6 6 7 7 9 8 8 7 7 8 8 8 9 10 11 11 10 9 10 11 12 13 13
3 2 2 3 3 2 2 3 2 6 5 4 4 7 4 3 6 2 8 7 5 2 3 6 8 9 10 9 8 6 7 7 8 11 13 14 15 14 14 15 15 13 11 10 7 7 7 4 4 3 2 2 2 3 3 4 5 5 6 6 7 8 8 7 8 8 8 7 8 7 5 5 5 5 5 5 6 8 10 11 10 9 7 8 9 10 10 12 12 12 12 11 10 11 12 13 14
3 2 3 2 3 3 3 4 1 6 9 6 5 6 4 6 7 8 10 7 5 3 4 3 7 9 9 9 9 6 7 8 7 12 15 15 16 16 16 16 16 14 12 10 8 7 7 6 6 6 4 4 2 3 4 4 5 5 5 6 6 6 7 7 6 6 6 6 6 5 4 4 4 3 3 4 6 9 11 11 11 10 8 8 10 12 12 13 13 12 12 13 13 13 13 14 15
7 4 5 4 2 4 6 4 2 5 10 7 4 7 7 9 9 9 10 6 5 6 2 3 2 7 8 8 8 7 7 7 9 14 18 19 19 19 20 19 18 16 14 13 10 9 10 10 10 9 7 6 4 3 3 3 4 5 6 7 7 8 9 9 8 7 7 6 6 5 5 5 4 3 2 3 5 8 10 11 11 11 11 10 12 13 12 12 12 12 12 13 13 14 15 16 15
6 5 4 3 2 2 4 4 5 3 8 6 5 9 8 9 9 8 8 8 8 7 4 2 4 1 4 6 9 9 7 7 11 16 19 21 21 21 22 21 20 19 18 16 14 14 14 13 13 13 11 9 7 6 5 5 5 5 5 6 8 9 10 10 11 11 10 9 8 7 7 6 5 3 2 3 4 7 8 10 10 11 11 12 13 12 11 11 11 11 11 11 12 13 15 15 14
5 5 4 2 1 2 3 4 7 4 6 7 8 10 8 7 8 6 5 7 8 8 7 3 4 4 4 3 10 10 7 8 11 14 16 20 20 21 23 22 22 21 20 20 18 17 16 15 15 15 13 11 10 10 9 8 6 6 5 6 8 10 11 11 11 12 11 10 10 9 8 7 6 5 4 3 4 5 7 8 9 9 9 10 11 10 10 10 11 11 10 9 10 11 13 14 13
5 3 4 2 1 1 3 5 8 6 4 6 8 9 7 7 7 6 4 6 6 5 7 4 4 5 4 2 7 8 9 9 9 10 13 18 19 21 23 22 21 21 21 21 20 18 17 17 16 15 15 14 13 12 10 9 8 7 7 7 9 11 12 12 12 12 12 12 12 11 10 9 7 6 5 3 3 4 6 7 8 8 7 7 9 10 10 10 12 13 10 9 10 11 12 13 13
4 4 4 1 2 1 1 4 7 7 5 7 10 7 5 5 7 5 5 7 6 4 8 6 5 6 0 2 5 6 9 10 9 8 10 14 17 19 21 21 21 21 21 21 19 19 17 16 15 15 14 13 13 12 11 9 8 8 9 10 10 11 12 13 13 13 13 13 13 13 12 11 10 8 7 6 5 6 6 7 7 7 8 8 9 10 11 12 12 12 11 10 11 12 13 13 13
1 3 5 3 2 3 2 2 2 7 7 8 10 6 2 3 6 4 5 7 7 6 8 6 3 6 5 4 5 5 5 8 10 9 8 11 14 17 19 19 20 21 21 20 18 18 16 15 13 12 12 11 10 10 10 8 7 8 9 9 9 9 10 10 12 14 13 13 13 13 13 12 10 10 9 9 8 8 8 8 7 8 8 9 10 10 11 12 12 12 12 12 12 12 13 14 14
1 3 5 6 6 6 5 3 3 5 3 3 5 4 1 3 5 4 4 5 6 5 6 6 5 5 6 7 6 4 4 6 9 10 9 9 12 15 17 18 20 21 20 20 18 16 15 14 12 11 11 11 10 10 9 8 7 8 8 8 8 9 10 11 12 13 13 13 13 13 12 11 10 10 10 10 10 10 10 10 9 9 9 9 10 11 11 12 13 13 14 14 13 13 13 13 14
2 5 6 8 9 9 7 5 4 3 2 2 2 3 2 3 4 4 4 5 6 4 3 5 5 3 5 7 6 5 5 6 8 9 9 10 11 14 16 18 20 20 19 20 18 16 15 13 12 12 11 11 11 10 9 8 8 9 10 11 10 10 12 12 12 12 13 12 12 12 12 12 11 11 10 11 10 10 10 11 11 11 10 10 10 11 12 13 13 14 14 14 14 14 14 14 15
3 6 8 11 11 9 8 5 4 3 3 3 1 2 3 2 4 4 5 6 6 4 4 3 3 3 6 7 6 6 4 5 8 8 8 10 11 13 15 17 19 19 18 19 18 16 15 13 13 12 12 12 12 11 10 10 9 8 9 10 11 12 12 12 11 11 11 11 11 12 13 13 13 13 12 11 11 11 11 12 12 13 13 13 12 12 12 12 12 12 13 14 14 14 14 16 17
5 6 9 10 10 10 8 5 4 2 3 2 3 2 3 1 2 4 5 6 7 7 8 7 5 4 6 7 8 7 5 5 7 8 8 9 10 13 15 16 17 18 18 18 17 16 15 15 15 15 15 14 13 12 12 11 10 8 8 8 10 11 11 10 10 10 12 12 13 14 15 15 14 14 14 13 13 13 13 13 14 14 15 15 15 15 14 14 13 13 13 13 14 14 14 15 17
4 7 7 5 5 5 4 4 4 3 2 3 7 5 3 1 3 6 4 5 8 8 8 8 7 6 5 6 9 8 6 5 7 9 10 9 9 12 15 15 16 17 17 16 16 15 16 16 17 18 18 16 14 13 12 11 10 9 9 9 10 10 11 10 10 12 13 14 15 16 17 16 15 14 15 15 14 15 15 15 15 15 16 16 16 17 18 18 18 16 14 14 14 15 15 15 16
6 7 6 6 5 4 4 2 4 4 2 4 8 8 4 2 4 7 6 5 10 10 7 7 8 8 7 7 9 7 6 6 6 8 10 9 9 12 15 15 14 16 16 16 16 15 15 16 17 20 20 18 17 15 14 13 12 12 13 12 13 13 13 13 13 14 15 15 15 16 15 13 13 14 15 16 16 16 16 16 17 16 17 17 17 19 19 20 21 20 18 16 16 16 17 17 17
7 5 5 5 2 3 4 4 3 2 4 5 6 8 5 3 5 7 7 4 10 13 11 12 11 10 8 7 9 7 5 7 6 6 8 7 7 11 14 14 12 14 15 15 16 15 16 16 17 21 22 21 20 18 16 15 14 15 15 15 15 15 14 15 15 16 16 15 15 14 14 13 14 15 17 17 17 18 19 18 18 17 18 18 18 19 20 21 21 21 20 18 17 17 18 19 19
6 4 5 5 1 1 1 1 1 3 4 4 4 7 3 4 4 4 5 4 9 11 10 13 12 11 9 8 9 7 5 6 5 5 7 5 6 9 12 12 11 12 14 14 15 16 17 17 18 22 24 22 20 18 17 16 16 16 16 15 15 15 14 15 15 15 16 15 15 15 16 16 17 17 17 17 17 20 21 20 20 19 19 20 19 20 20 22 22 22 22 21 20 19 18 19 19
5 5 6 5 3 3 4 3 1 2 3 4 2 6 2 3 1 2 5 4 7 11 10 11 12 11 9 9 10 8 6 6 4 5 6 5 6 8 10 11 11 12 13 13 14 16 17 18 20 23 23 20 19 18 16 16 16 17 16 16 16 15 14 14 14 14 14 15 15 15 15 16 17 17 17 17 17 19 21 21 21 20 20 20 20 20 21 21 22 22 22 22 22 22 21 21 20
4 5 6 5 5 5 4 4 2 3 1 3 1 4 2 1 1 4 5 3 6 12 11 11 12 10 9 8 9 9 7 6 4 5 6 6 7 9 10 12 12 13 13 12 14 17 17 18 21 22 19 17 17 17 16 16 17 17 16 17 17 17 17 17 16 15 15 14 14 14 13 14 14 14 15 16 17 18 20 20 20 21 21 22 22 23 23 22 23 23 22 22 22 22 23 22 22
2 3 5 3 5 5 3 3 5 5 3 1 1 2 1 1 1 3 2 5 9 12 11 13 13 11 10 8 8 8 6 6 6 6 6 7 8 9 11 14 15 14 13 13 16 17 17 18 19 18 16 16 16 16 16 15 15 16 16 18 19 20 20 20 20 18 17 17 16 16 15 14 13 12 12 14 16 18 20 20 21 22 23 23 24 24 24 24 24 23 23 22 21 21 22 21 21
2 3 4 4 4 6 5 1 1 3 3 1 1 0 0 0 1 2 6 8 11 12 12 13 13 12 11 9 8 8 6 6 7 6 6 7 9 11 13 16 16 16 15 16 17 17 17 17 17 16 16 16 16 15 16 15 15 16 17 19 21 21 22 22 21 20 19 19 19 18 17 16 16 14 14 14 15 18 21 22 23 23 24 24 24 24 25 24 24 23 22 22 22 22 22 21 21
6 4 6 3 2 3 3 2 2 4 2 2 1 2 2 2 1 4 9 9 10 11 12 13 13 13 11 9 9 9 7 7 7 6 7 9 11 12 14 17 18 19 19 19 18 17 16 15 15 16 17 16 15 15 16 16 16 17 19 20 21 22 22 23 23 22 22 21 22 21 19 18 17 16 15 15 16 19 21 23 24 24 24 25 25 26 26 26 25 24 24 24 24 24 23 23 23
4 5 7 5 3 3 1 3 2 2 1 2 2 2 3 4 4 7 11 12 12 13 13 14 14 13 11 11 11 10 8 7 6 7 6 8 11 13 16 19 20 21 21 20 19 17 17 16 16 17 18 17 16 15 16 17 18 19 20 20 21 21 22 22 23 23 23 24 24 23 21 20 18 17 17 17 18 21 23 24 25 25 25 26 27 27 28 28 28 27 27 27 27 27 26 26 26
3 4 5 3 3 4 3 2 3 4 3 1 0 1 3 5 6 11 14 13 14 14 12 12 13 12 11 10 10 10 8 6 6 7 6 8 12 13 17 19 19 20 21 20 19 18 18 18 18 19 18 17 16 16 17 18 19 19 19 20 20 21 21 21 22 23 24 25 24 23 23 21 20 19 19 19 21 22 24 25 26 27 27 28 29 30 31 30 29 29 29 29 28 28 27 27 28
3 4 5 2 1 2 2 1 2 4 4 2 2 2 5 4 5 12 15 12 12 12 10 11 11 11 11 11 10 10 8 7 7 7 7 9 13 15 18 19 19 20 21 21 20 19 19 18 18 19 17 16 16 17 18 18 18 18 19 20 20 20 19 20 21 24 25 26 26 25 24 23 22 22 22 23 23 24 25 26 27 29 30 31 32 32 33 32 30 28 28 28 28 28 27 28 29
6 5 6 5 3 4 4 2 1 3 3 4 4 3 6 5 3 7 11 11 10 10 10 10 9 11 11 10 11 11 9 9 9 8 8 11 13 16 18 19 20 20 21 21 21 20 19 19 18 18 17 17 17 17 18 17 16 17 17 18 18 17 17 18 20 24 25 26 26 26 25 25 25 24 24 24 24 25 26 27 29 31 31 32 33 34 34 34 31 29 29 29 29 29 28 27 28
Wind_Direction
358 352 357 352 342 342 347 43 52 324 83 201 268 252 260 245 255 316 300 299 335 355 336 50 66 64 101 113 128 118 71 118 168 149 195 255 139 150 159 169 164 158 156 158 159 159 157 155 154 149 142 136 130 125 131 139 131 126 125 119 117 117 117 116 118 120 120 120 120 119 118 118 117 116 115 113 111 109 108 107 106 105 104 104 104 104 106 110 110 111 112 112 110 107 105 106 105
0 358 2 5 360 4 281 67 93 313 51 272 259 200 262 324 350 268 257 270 214 147 101 84 85 80 92 108 116 98 54 37 123 136 99 124 134 146 163 167 162 156 154 156 159 160 157 154 153 149 143 139 134 128 130 137 132 128 126 121 120 120 120 118 118 120 120 121 121 120 119 119 117 116 114 112 109 107 106 106 106 104 105 104 103 101 105 111 112 112 114 115 112 108 105 106 107
4 19 20 21 12 30 79 40 98 155 148 236 259 241 309 355 311 277 262 223 148 144 131 106 92 84 94 98 66 65 81 30 90 100 106 133 138 153 165 162 159 153 152 155 159 160 153 152 152 147 144 142 137 131 129 135 134 131 128 122 123 122 121 121 120 121 121 122 122 121 120 118 117 115 113 111 107 105 104 104 104 104 105 104 103 101 104 112 115 116 116 118 117 113 110 107 106
11 34 30 47 41 29 61 46 140 138 185 228 269 286 309 348 325 337 355 118 141 149 115 80 55 5 77 95 75 76 102 86 99 104 125 149 157 159 159 157 154 149 152 156 159 157 151 152 150 146 145 143 138 132 130 134 135 131 129 125 123 123 123 122 122 123 123 123 122 121 119 118 117 114 111 109 107 106 106 105 106 106 105 106 109 107 109 117 119 119 118 121 124 121 116 111 107
20 47 37 60 94 46 95 90 116 148 207 192 199 281 268 265 6 20 41 50 336 359 57 71 59 340 64 90 135 96 105 119 117 116 119 139 155 155 155 154 151 148 153 156 158 155 150 152 149 146 145 143 139 133 132 132 134 133 130 128 124 124 124 123 124 125 124 124 123 122 120 120 118 114 111 108 107 107 108 107 108 109 109 113 116 112 115 125 124 118 120 127 129 125 119 112 106
42 72 51 58 99 160 115 147 188 208 225 146 162 262 248 262 1 21 48 31 18 35 53 65 108 127 79 48 47 91 137 135 118 126 123 133 150 154 153 151 148 148 152 155 158 152 149 154 150 147 144 141 139 135 134 132 134 136 132 130 127 126 126 124 126 126 126 126 125 124 122 122 120 116 113 109 108 106 107 105 105 107 109 115 117 116 121 129 131 128 131 134 134 129 122 111 100
68 85 39 60 54 23 114 197 213 227 249 159 180 240 248 277 348 358 334 34 28 36 48 56 86 102 88 35 46 51 67 102 123 138 137 139 148 151 150 148 146 147 149 153 152 148 152 156 149 145 143 141 139 138 135 134 137 136 135 132 130 129 128 127 129 128 128 128 127 127 126 124 121 117 112 107 104 102 102 100 99 98 95 98 105 119 129 134 139 143 147 148 152 146 128 112 100
68 84 23 92 58 10 115 238 242 205 253 233 222 233 260 288 317 331 327 19 25 62 85 83 55 63 78 53 74 26 45 86 129 133 136 139 145 148 148 147 145 145 145 150 147 147 155 154 148 144 141 141 141 140 138 137 137 136 137 135 134 134 133 132 132 131 130 130 129 128 127 122 117 111 103 97 93 92 94 94 95 89 86 85 89 107 129 138 142 145 153 163 170 161 135 116 105
53 55 75 91 114 4 20 277 268 223 257 273 269 244 245 274 286 297 289 349 119 129 142 174 56 78 116 86 85 1 54 105 121 123 133 139 145 146 145 145 144 143 144 147 146 149 154 150 147 144 142 144 144 145 146 142 140 138 136 138 140 140 139 136 135 134 131 130 127 126 125 117 109 101 91 85 80 79 83 87 87 79 81 76 73 90 116 130 135 135 141 154 159 151 132 117 105
37 26 131 86 118 199 293 269 258 257 251 252 261 247 226 244 243 237 249 227 142 122 77 86 90 117 133 117 100 10 103 120 118 119 133 141 145 143 142 146 145 144 145 146 148 151 149 148 150 147 146 149 150 152 153 149 146 141 139 146 146 144 143 140 138 135 132 128 125 125 123 113 103 93 83 75 70 68 71 76 75 69 72 67 62 73 92 107 123 130 133 139 140 135 126 116 104
42 350 103 90 96 185 246 252 272 272 270 283 267 248 224 218 212 229 215 120 119 114 112 94 103 128 123 121 102 99 117 118 119 124 138 143 144 141 143 147 147 145 144 147 150 149 146 151 155 152 156 158 158 157 155 154 149 144 148 151 144 144 145 142 140 136 132 129 127 125 121 113 102 87 73 65 60 59 65 68 63 59 61 60 57 60 70 88 114 130 132 134 133 129 124 116 101
97 333 66 102 165 193 212 237 277 280 291 295 269 265 213 192 195 224 180 135 133 127 144 130 138 147 116 117 118 111 111 111 124 133 145 146 143 143 146 147 146 146 144 148 150 149 150 156 158 160 165 166 164 160 157 156 151 151 155 151 143 146 146 143 140 135 134 134 129 121 117 113 97 75 59 55 51 46 51 58 56 52 53 56 51 48 55 75 108 129 132 133 133 131 126 113 92
124 154 91 135 195 169 170 201 273 303 310 266 244 270 171 170 192 210 178 143 148 143 173 159 157 155 109 120 125 120 112 123 135 140 148 146 145 143 143 144 145 146 146 150 150 150 154 157 160 162 164 165 164 160 159 160 155 155 157 154 151 150 148 145 141 135 133 131 124 116 111 101 81 57 50 49 45 42 42 43 47 47 47 54 49 44 47 65 102 129 134 135 136 135 128 106 83
142 157 118 167 213 135 168 231 273 285 289 258 254 284 198 192 205 197 148 132 155 161 143 139 151 125 112 133 133 154 134 140 144 143 147 144 142 140 141 144 145 147 148 151 150 152 155 159 161 158 162 162 159 157 160 163 158 157 157 157 155 151 148 147 145 140 135 128 118 110 101 87 70 52 51 46 39 40 41 37 39 42 43 49 48 45 46 58 94 129 138 141 142 139 127 101 77
150 133 96 129 47 340 201 214 221 164 253 252 285 315 317 266 186 161 144 134 143 149 114 129 154 99 153 171 166 169 145 145 146 142 144 140 138 138 141 143 143 147 149 152 152 156 158 160 161 158 162 160 157 160 162 163 160 157 156 156 153 147 143 144 149 145 138 128 117 112 104 89 74 62 58 49 39 33 39 43 39 38 40 46 46 44 45 53 84 128 144 148 148 141 127 101 77
133 106 74 96 193 239 212 205 175 164 256 247 277 338 7 333 101 132 156 127 127 121 86 125 246 158 172 180 139 142 142 144 142 141 141 136 136 136 139 140 142 148 151 154 155 159 160 161 163 158 158 157 158 162 161 159 156 154 155 157 152 146 140 142 149 150 143 130 126 122 107 93 76 70 58 57 56 25 34 50 45 39 35 43 48 45 43 47 68 119 148 156 156 147 133 108 83
80 82 85 95 191 198 206 201 173 194 268 270 301 12 46 343 15 91 64 89 120 111 53 56 360 60 139 120 118 130 139 143 139 139 137 135 137 135 139 141 143 149 152 155 158 160 161 164 163 156 156 158 159 159 158 151 145 150 155 156 148 146 145 144 150 154 153 144 140 128 105 90 68 61 42 62 84 19 40 51 40 44 32 35 46 47 44 43 55 84 148 166 165 157 142 115 92
76 89 130 179 190 199 191 191 193 199 282 281 308 355 93 316 8 105 75 72 93 89 71 72 55 63 90 104 119 128 137 142 140 138 137 137 138 138 142 144 145 150 153 155 162 164 165 164 159 157 157 158 158 155 152 144 146 154 152 146 134 125 127 139 151 155 159 155 143 125 101 68 56 54 48 43 42 34 61 60 9 17 20 21 35 43 45 41 48 60 98 188 181 169 157 128 101
123 112 150 216 200 213 202 193 212 217 272 284 302 299 200 160 140 160 98 110 109 98 90 92 88 88 97 110 123 130 137 142 145 140 137 140 144 145 145 148 151 154 158 159 164 169 169 164 157 156 157 157 155 148 143 141 146 150 143 136 127 123 127 139 148 153 157 149 126 99 83 65 61 59 50 38 33 34 52 59 5 355 351 357 14 26 38 38 40 48 63 177 200 186 176 151 116
174 132 173 243 209 227 237 215 230 239 265 285 295 292 160 131 117 344 120 126 120 126 133 125 124 125 122 123 128 133 138 144 147 138 134 141 147 150 151 154 158 161 165 162 163 171 170 164 158 154 156 157 149 142 140 138 137 140 139 136 132 129 134 141 143 144 145 140 123 92 79 63 53 50 40 24 25 28 29 27 1 349 332 329 338 351 14 29 32 35 46 87 199 195 188 178 153
181 153 188 235 191 234 253 221 237 248 238 246 291 301 128 124 83 120 134 125 144 182 178 153 145 144 138 136 134 136 141 144 143 135 133 141 147 153 156 158 161 164 165 161 164 171 171 167 161 154 157 156 147 147 144 136 136 143 145 145 145 129 120 135 138 134 139 149 134 93 77 50 29 22 12 1 6 14 17 13 3 352 331 315 307 310 330 360 18 22 33 52 179 191 189 191 196
168 211 203 219 187 240 251 204 223 241 227 283 319 120 138 112 87 129 143 138 198 189 189 162 147 146 145 141 138 138 141 143 141 136 137 144 154 157 157 157 158 161 163 164 166 171 173 168 161 155 159 158 148 148 144 137 145 157 157 155 158 147 129 138 141 145 155 159 100 49 41 21 8 2 359 359 3 5 3 359 357 356 347 329 306 295 293 299 328 350 10 35 125 188 190 199 227
197 266 247 231 219 238 259 215 232 31 316 298 296 197 127 95 98 89 13 1 68 99 121 144 139 134 135 133 134 138 140 144 144 143 145 151 158 159 156 157 159 159 162 164 162 166 171 165 156 150 151 154 148 147 146 145 150 159 160 164 172 172 169 170 184 231 271 302 320 333 340 346 349 346 347 356 3 7 357 344 343 343 347 347 336 312 291 280 281 290 302 321 351 203 200 208 237
170 253 286 256 225 231 260 272 297 354 277 268 205 173 130 117 119 39 37 52 81 100 120 130 126 121 124 123 125 133 134 138 139 139 145 151 156 156 153 156 159 158 157 155 155 159 164 162 155 147 143 145 149 154 156 152 148 152 159 171 182 186 203 245 276 293 304 312 320 327 333 336 337 335 337 346 352 360 354 338 331 326 328 335 338 337 316 288 278 279 283 282 286 264 232 230 245
178 223 261 269 241 238 264 280 290 268 252 258 106 104 117 119 112 67 40 88 105 116 126 125 121 114 116 119 119 123 126 127 127 131 137 143 150 148 147 154 155 154 152 148 151 157 162 162 157 154 150 142 146 156 157 151 148 154 158 165 173 171 207 317 315 317 315 318 321 320 324 329 333 332 330 334 339 344 343 334 325 315 314 317 320 326 329 315 287 279 279 277 275 269 264 262 261
211 210 236 264 278 274 280 283 261 236 238 107 89 89 105 109 97 65 330 98 113 120 124 121 118 117 117 116 116 121 123 127 132 136 137 140 148 148 150 155 151 149 147 143 149 160 168 167 162 160 158 144 132 141 149 146 140 137 127 123 85 50 28 356 336 327 317 314 318 319 321 323 330 338 335 330 328 329 330 326 319 310 306 305 306 312 315 313 301 286 280 280 278 273 274 280 282
199 203 241 244 273 284 267 267 251 206 259 113 107 109 111 70 82 108 309 95 117 120 113 111 117 123 122 113 116 123 125 132 139 141 140 144 152 154 157 159 154 148 140 137 152 170 173 173 171 165 169 169 133 132 146 145 123 101 90 71 15 358 345 338 334 330 326 320 318 320 321 320 327 339 340 335 326 319 318 314 310 306 303 304 304 305 305 304 301 296 292 292 291 288 288 291 296
199 205 298 281 302 297 256 272 259 194 308 127 119 112 57 2 79 134 134 112 123 122 114 120 129 128 121 117 118 122 126 133 139 141 143 150 157 159 161 162 159 152 141 139 156 175 177 179 177 174 191 207 189 162 152 150 342 352 349 352 343 336 333 330 328 329 333 330 323 319 319 322 324 328 333 334 329 318 313 311 310 309 309 308 305 301 300 299 299 300 303 304 301 298 296 297 299
273 77 348 307 354 335 272 261 238 176 145 168 126 92 9 7 98 134 137 139 134 127 130 137 138 132 125 120 119 119 126 133 137 142 146 151 156 160 163 164 162 156 151 151 155 165 171 178 182 191 211 228 235 237 295 316 317 324 325 339 346 346 345 338 333 330 330 330 329 325 323 326 324 322 323 326 331 326 319 316 313 315 315 311 305 300 297 297 298 300 302 303 302 299 296 297 299
292 32 62 319 9 335 283 217 197 113 150 185 126 90 306 41 116 150 152 149 145 139 142 142 137 136 129 121 118 117 120 126 130 134 140 146 149 156 161 163 161 155 155 156 147 149 159 167 175 185 207 233 252 290 331 328 319 320 334 351 351 351 349 341 337 334 329 332 334 331 326 323 323 324 324 324 325 318 308 305 308 315 316 309 305 307 310 310 304 298 295 293 291 292 292 295 299
289 353 34 10 55 276 293 308 129 98 169 212 92 97 209 136 142 169 161 152 150 145 143 139 135 133 127 121 117 113 108 106 107 119 132 139 142 145 151 157 156 149 149 152 143 143 154 152 149 157 183 274 314 359 350 349 332 333 2 6 359 354 350 346 345 345 341 341 341 338 332 323 324 327 325 320 304 290 287 286 295 307 306 304 307 314 316 313 308 302 298 292 286 285 287 291 296
39 114 312 340 162 260 306 306 143 123 243 359 82 111 158 156 172 180 161 157 146 140 144 141 136 134 130 125 117 109 101 95 95 110 127 139 143 145 149 155 155 153 152 154 153 144 148 150 151 169 187 279 340 46 30 24 5 2 12 9 7 360 354 352 347 347 345 341 337 334 329 325 324 321 317 316 303 292 294 294 298 302 299 303 308 313 310 307 309 307 304 299 294 291 291 293 295
1 105 212 272 197 268 322 302 349 104 117 17 66 140 144 176 189 200 98 135 130 136 150 137 132 136 134 129 119 111 104 94 91 102 119 134 142 147 148 150 155 157 152 151 151 132 129 133 127 128 120 331 2 23 18 26 21 10 10 12 12 5 357 353 349 347 343 336 331 325 323 322 319 313 309 309 301 297 304 313 321 315 305 309 313 315 313 311 310 308 309 306 301 301 301 302 302
322 56 139 240 215 205 292 259 331 47 77 32 58 132 150 158 166 95 44 72 112 150 209 153 142 141 137 133 124 114 106 103 97 101 113 128 134 136 136 136 144 152 152 152 147 127 123 122 102 90 60 23 358 355 8 20 13 8 12 14 9 6 5 1 358 354 349 345 340 337 334 332 326 314 297 288 288 297 305 313 318 314 310 316 317 314 313 311 309 313 318 317 315 312 309 309 309
172 134 128 240 239 205 248 243 267 48 63 63 83 112 121 105 94 70 62 61 101 150 258 213 143 140 140 133 123 115 106 103 96 96 104 114 118 120 121 121 128 137 144 148 144 127 123 114 100 91 68 54 46 33 31 20 11 19 26 24 19 20 29 29 19 15 11 8 10 15 9 354 348 341 321 303 300 304 307 311 313 313 314 317 312 307 308 310 310 316 321 321 319 314 310 310 310
161 165 139 156 198 233 243 257 318 69 75 59 95 127 125 113 90 87 112 119 123 153 240 320 134 142 138 131 123 113 103 98 92 93 96 100 103 108 111 111 113 117 122 129 128 121 113 103 97 92 87 84 83 70 49 25 22 37 39 37 42 45 49 52 49 45 37 32 38 38 24 10 8 12 4 335 312 310 314 317 314 311 309 303 298 297 301 305 305 308 311 313 312 308 307 308 309
129 116 97 134 176 287 283 304 338 65 93 61 105 125 113 111 106 110 134 130 118 128 107 344 284 162 114 120 118 107 100 95 90 88 90 93 96 100 103 105 107 106 110 115 113 108 104 100 94 90 91 91 86 82 75 60 38 32 35 38 52 59 59 60 58 57 55 55 58 52 43 37 36 38 19 336 318 314 315 313 309 305 302 298 299 300 301 303 302 303 304 304 305 303 304 307 311
95 112 92 65 205 299 319 328 341 13 89 94 110 107 92 101 113 123 133 121 119 114 91 14 338 25 17 90 109 103 103 100 90 84 84 89 92 96 98 100 101 97 99 106 104 101 101 97 93 88 88 87 82 82 77 66 52 44 55 69 77 76 69 64 61 60 60 62 61 57 54 51 48 45 31 358 327 317 314 316 318 315 308 307 313 314 312 311 313 315 310 303 302 302 302 305 310
92 110 110 76 263 284 333 341 352 12 78 116 113 97 95 103 112 121 105 105 125 129 115 104 84 67 340 9 101 106 109 102 94 87 84 88 89 93 95 95 96 96 95 99 100 98 96 91 88 85 82 80 78 78 74 69 65 63 79 98 95 86 79 75 75 73 70 68 66 63 59 56 53 48 40 25 360 346 342 341 338 333 332 334 331 328 329 330 331 329 322 314 311 310 307 305 309
102 116 122 181 247 135 321 329 5 30 73 123 113 92 88 92 104 103 73 96 118 122 119 116 114 119 131 8 81 104 116 109 100 94 90 92 90 91 94 94 96 97 95 96 97 94 90 85 81 77 72 69 66 68 72 78 86 94 103 107 100 90 87 86 84 81 76 73 71 69 65 61 58 53 47 37 22 13 7 1 359 356 1 1 346 338 339 341 340 336 332 330 324 313 306 305 309
166 153 140 186 204 122 154 206 50 51 67 115 112 94 78 96 116 107 73 100 112 112 118 106 94 121 124 93 74 81 104 110 107 104 99 95 93 93 96 99 99 96 93 93 93 90 87 82 75 69 64 59 58 59 65 70 80 95 107 110 102 92 85 79 75 73 71 70 69 67 65 62 59 55 48 40 33 26 21 17 18 18 18 9 353 344 346 350 350 347 343 336 326 312 303 300 301
218 226 180 167 138 113 110 116 84 65 81 167 120 104 154 115 126 132 112 118 113 117 135 125 118 121 113 103 94 83 80 98 104 104 100 89 89 92 90 92 93 90 89 91 91 88 85 81 73 69 63 57 54 50 50 49 55 68 77 86 88 84 75 65 62 65 65 65 63 62 60 56 53 50 43 39 34 30 27 23 23 25 23 15 5 359 357 355 352 350 347 335 326 320 310 297 292
183 228 180 141 121 121 126 117 94 105 178 202 111 114 149 145 153 147 130 126 114 101 94 107 124 125 112 111 111 104 93 99 101 96 95 87 86 89 87 88 88 87 89 90 87 82 80 77 71 66 61 57 52 45 38 35 43 56 66 73 79 84 83 73 65 62 61 57 54 51 46 42 38 35 33 30 26 23 20 18 16 17 17 15 11 7 2 357 350 348 346 340 333 329 318 298 289
204 225 154 131 128 140 154 137 118 157 147 86 75 117 112 161 178 145 135 130 118 109 95 106 154 135 115 120 118 113 117 116 109 99 90 88 89 90 90 91 93 95 95 91 86 83 80 76 72 66 62 60 56 51 45 40 41 48 61 71 73 74 75 72 63 53 48 40 35 31 26 25 25 23 23 21 20 16 12 10 7 5 7 7 4 0 356 352 347 342 341 339 334 329 323 307 296
222 204 154 142 143 154 164 142 116 131 109 114 233 172 91 241 182 131 150 152 149 162 160 160 166 138 119 124 117 109 112 108 105 103 91 89 94 96 95 92 94 99 96 90 88 87 84 79 75 69 62 58 53 51 49 48 48 46 47 57 60 60 57 56 50 39 34 25 18 14 8 6 8 10 12 13 14 13 12 12 7 4 5 2 358 354 349 346 343 339 333 329 325 319 316 312 305
205 155 127 99 104 121 128 123 97 70 76 200 207 169 108 241 186 151 176 188 179 178 170 162 147 128 129 125 114 107 106 96 93 96 89 88 96 98 99 95 94 98 97 95 93 89 85 79 72 65 59 56 52 48 47 49 50 48 48 50 50 47 41 36 29 23 20 14 9 6 360 356 357 2 6 8 11 14 15 14 10 8 6 1 357 353 350 347 346 342 335 326 322 317 311 309 306
132 127 106 70 54 56 57 53 71 80 282 241 194 173 149 208 204 174 186 204 181 167 157 160 142 129 142 132 116 114 111 104 94 91 89 90 95 97 99 95 92 98 100 98 94 86 80 74 69 65 59 56 54 52 51 53 53 53 53 52 48 43 38 31 24 20 17 14 14 12 8 7 11 17 15 11 13 17 18 15 12 9 5 3 0 359 357 354 351 347 342 333 326 323 321 318 313
118 122 120 101 44 31 39 4 34 141 251 271 199 168 153 210 224 195 201 203 171 166 160 159 147 133 143 136 118 117 116 112 106 100 100 99 98 96 94 90 91 97 97 96 95 91 84 79 74 69 62 57 56 55 56 57 56 56 54 51 49 44 39 35 31 27 24 24 25 24 26 28 29 30 25 19 17 17 18 16 12 8 6 5 3 2 359 355 352 350 349 345 337 331 327 325 322
115 112 123 121 98 64 147 281 311 208 240 291 198 155 156 237 229 210 225 206 167 163 153 148 141 132 139 135 121 121 120 115 117 118 114 107 101 94 88 89 92 93 91 96 101 98 90 84 78 73 68 64 62 60 60 59 57 56 54 50 46 39 35 34 32 30 30 31 31 31 32 31 30 29 29 27 20 16 17 17 15 12 10 8 4 2 358 353 351 350 350 351 349 345 338 331 325
141 142 145 149 150 159 202 223 295 235 244 310 220 166 205 254 224 324 285 247 162 140 134 135 131 132 140 137 128 126 121 121 127 123 113 105 104 98 93 95 94 90 90 96 103 100 92 85 80 78 74 68 66 66 64 62 60 57 53 50 46 43 42 43 42 39 36 36 34 33 33 31 29 28 29 26 15 12 15 17 17 16 12 10 6 3 359 354 349 347 347 347 348 348 344 338 333
163 150 132 149 165 157 190 206 185 193 209 334 256 177 213 212 258 297 283 260 133 125 127 127 124 131 134 129 127 124 126 135 133 116 106 106 109 104 100 97 93 94 96 103 109 105 97 89 83 80 76 72 71 71 68 65 62 59 56 54 54 56 58 59 60 57 51 47 43 42 40 36 32 32 32 22 10 10 14 14 16 15 12 10 6 2 359 353 347 344 343 342 341 340 337 335 333
196 139 118 172 190 141 119 178 170 157 134 56 181 197 242 162 306 283 193 137 126 127 130 130 130 134 132 129 130 126 133 139 125 116 110 105 104 101 97 94 94 97 101 107 111 107 101 93 88 84 82 82 80 75 72 69 66 62 61 62 61 62 65 65 66 65 62 60 58 55 52 49 44 42 38 27 18 18 19 17 16 14 11 8 4 1 358 353 348 345 343 341 339 336 334 332 330
161 151 170 192 171 123 111 178 99 97 136 181 177 165 339 34 308 199 150 134 134 137 136 135 137 138 137 138 138 134 137 130 118 115 111 103 99 96 95 97 99 101 103 106 109 108 105 100 96 95 94 92 87 80 78 74 69 68 69 70 67 64 64 66 67 67 66 64 62 59 57 55 51 48 44 38 31 25 23 22 20 16 14 10 7 5 1 357 352 349 348 348 346 342 340 339 338
137 184 187 140 104 104 110 159 32 55 173 243 285 179 184 181 222 176 157 147 148 149 144 143 145 147 146 143 140 137 131 124 116 110 107 106 105 102 102 103 104 107 108 109 110 110 109 107 106 107 103 98 92 85 80 74 72 74 73 72 71 67 65 65 65 64 62 60 58 56 55 54 51 48 45 41 35 29 27 27 25 22 19 16 13 11 8 4 0 358 356 355 353 351 348 347 348
126 179 177 133 162 210 123 157 168 121 199 278 301 233 213 200 191 178 172 167 163 160 153 152 154 153 148 142 138 131 123 122 118 114 111 109 110 110 110 109 108 111 112 112 112 113 112 111 111 110 107 102 96 88 81 77 78 79 76 73 72 69 65 63 61 59 57 55 54 52 51 51 50 49 46 43 38 33 31 30 28 25 23 20 18 16 13 10 8 7 4 1 359 357 354 353 354
67 124 172 150 165 188 162 154 165 153 171 248 281 241 240 221 189 182 185 178 168 164 159 157 156 150 144 140 136 129 128 133 127 122 118 110 110 112 113 114 113 114 113 113 113 112 110 110 110 110 108 104 97 88 83 84 84 81 78 77 73 69 65 61 58 56 55 54 53 51 49 48 50 51 49 47 41 35 33 32 30 28 26 23 21 18 16 14 13 12 8 4 2 0 357 356 356
130 134 179 187 86 127 145 125 109 129 151 175 162 234 253 245 197 185 184 174 167 163 153 150 146 141 140 137 135 133 135 139 132 124 120 113 112 112 114 117 115 112 112 113 113 111 110 110 109 109 108 104 97 91 88 88 87 82 80 80 77 72 69 63 59 57 57 56 53 51 50 51 52 52 49 45 40 37 35 34 32 30 28 25 23 19 16 15 14 13 12 9 5 3 360 356 356
163 165 182 180 150 119 142 217 243 109 133 164 160 217 258 268 246 189 170 159 158 150 138 135 132 133 138 137 137 140 140 139 133 124 121 119 116 116 117 117 114 109 109 112 113 112 111 109 108 108 107 102 98 94 91 89 86 82 79 78 77 75 73 69 64 61 58 55 52 50 51 52 52 51 49 45 40 38 37 35 33 31 28 27 24 21 17 15 14 12 12 11 8 5 0 355 355